[[{"header":{"parameterUnit":"m.s-1","parameterCategory":1,"la1":30.2991,"la2":30.254,"lo1":-89.0895,"lo2":-89.0444,"dy":0.0017,"dx":0.0017,"nx":28,"ny":28,"refTime":"2023-09-26T03:00:00:Z","depth":0,"parameterNumber":2,"parameterNumberName":"U-component_of_WINDS"},"data":[0,0,0,0,0,0,0,0,0,0,0,0,0,0,0,0,0,0,0,0,0,0,0,0,0,0,0,0,0,0,0,0,0,0,0,0,0,0,0,0,0,0,0,0,0,0,0,0,0,0,0,0,0,0,0,0,0,0,-0.62,-0.6199,0,-0.6029,-0.6027,-0.6025,-0.5911,-0.591,-0.5909,-0.5908,-0.5726,-0.5722,-0.5718,0,0,0,0,0,0,0,0,0,0,0,0,0,-0.6423,-0.6419,-0.6201,-0.6199,-0.6196,-0.6029,-0.6027,-0.6024,-0.5911,-0.591,-0.5909,-0.5908,-0.5728,-0.5723,-0.5718,0,0,0,0,0,0,0,0,0,0,0,0,0,-0.6296,-0.6418,-0.6201,-0.612,-0.6111,-0.603,-0.6027,-0.6024,-0.5911,-0.591,-0.5909,-0.5908,-0.5729,-0.5723,-0.5717,-0.5701,0,0,-0.5698,-0.5695,0,0,0,0,0,0,0,0,-0.6304,-0.6288,-0.6134,-0.6125,-0.6115,-0.599,-0.6038,-0.5915,-0.5911,-0.5987,-0.5908,-0.5907,-0.5815,-0.5801,-0.5771,-0.5693,-0.5685,-0.5697,-0.5694,-0.5691,-0.5689,0,0,0,0,0,0,0,-0.6312,-0.6295,-0.6132,-0.6132,-0.612,-0.6089,-0.607,-0.6014,-0.5909,-0.598,-0.5971,-0.5953,-0.5809,-0.5778,-0.5766,-0.5682,-0.5698,-0.5692,-0.5688,-0.5686,-0.5579,-0.558,0,0,0,0,0,0,-0.6335,-0.6303,-0.6138,-0.6127,-0.6209,-0.6086,-0.6065,-0.6031,-0.5909,-0.589,-0.5954,-0.5948,-0.5789,-0.5774,-0.5759,-0.5732,-0.5691,-0.5685,-0.5682,-0.5578,-0.5579,-0.558,0,0,0,0,0,0,-0.634,-0.6321,-0.6145,-0.6213,-0.6188,-0.6084,-0.6047,-0.6028,-0.5997,-0.589,-0.587,-0.5942,-0.5787,-0.5768,-0.5716,-0.5724,-0.5682,-0.5677,-0.5577,-0.5579,-0.558,-0.5678,0,0,0,0,0,0,-0.6347,-0.6324,-0.6319,-0.6214,-0.6185,-0.6108,-0.6047,-0.6026,-0.5987,-0.5978,-0.5873,-0.5854,-0.5785,-0.5726,-0.571,-0.5714,-0.5672,-0.5576,-0.5578,-0.5579,-0.5673,-0.5682,-0.569,0,0,0,0,0,-0.6356,-0.6352,-0.6319,-0.63,-0.6177,-0.6108,-0.6091,-0.6014,-0.5988,-0.5981,-0.5912,-0.5857,-0.5726,-0.5722,-0.5703,-0.5706,-0.5575,-0.5577,-0.5579,-0.567,-0.568,-0.569,0,0,0,0,0,0,-0.6459,-0.6337,-0.6299,-0.6262,-0.6197,-0.6089,-0.6078,-0.6028,-0.5967,-0.596,-0.5864,-0.5841,-0.5799,-0.5746,-0.5745,-0.5682,-0.5644,-0.5642,-0.5719,-0.5728,-0.5736,-0.575,-0.5667,0,0,0,0,0,-0.6478,-0.6436,-0.633,-0.6307,-0.6276,-0.6183,-0.615,-0.6096,-0.6024,-0.5995,-0.5922,-0.5851,-0.5793,-0.5758,-0.5699,-0.5665,-0.5639,-0.5656,-0.5665,-0.5672,-0.5672,-0.5648,-0.5654,-0.5587,-0.5587,-0.5587,0,0,-0.6516,-0.6444,-0.6423,-0.6326,-0.6269,-0.6225,-0.6161,-0.6116,-0.6081,-0.5987,-0.5935,-0.5878,-0.5793,-0.575,-0.5727,-0.5705,-0.5684,-0.5675,-0.5681,-0.5677,-0.5651,-0.5657,-0.5663,-0.5588,-0.5588,-0.5588,0,0,-0.6563,-0.6505,-0.6479,-0.6424,-0.6339,-0.6276,-0.627,-0.617,-0.6129,-0.6075,-0.6003,-0.5959,-0.5862,-0.5804,-0.5762,-0.5785,-0.5732,-0.5768,-0.5812,-0.579,-0.5795,-0.5799,-0.5807,-0.581,-0.5768,-0.5769,-0.5769,0,-0.6621,-0.6553,-0.6472,-0.6432,-0.6391,-0.6305,-0.6277,-0.6226,-0.6125,-0.6097,-0.6074,-0.595,-0.5887,-0.5828,-0.5834,-0.5803,-0.5791,-0.578,-0.5801,-0.5804,-0.5807,-0.5813,-0.5816,-0.5773,-0.5773,-0.5772,-0.5772,0,-0.6628,-0.6582,-0.6571,-0.6478,-0.6435,-0.6401,-0.6313,-0.6278,-0.6227,-0.6167,-0.6111,-0.6032,-0.5955,-0.5937,-0.5886,-0.587,-0.5859,-0.582,-0.5779,-0.582,-0.5824,-0.5825,-0.5781,-0.5779,-0.5777,-0.5776,0,0,-0.6737,-0.6599,-0.6596,-0.6552,-0.6451,-0.6413,-0.6374,-0.63,-0.6273,-0.6205,-0.6169,-0.6088,-0.6051,-0.6003,-0.5944,-0.5925,-0.5947,-0.5887,-0.5884,-0.5901,-0.5923,-0.5954,-0.5958,-0.5911,-0.5911,-0.5911,-0.593,0,-0.6768,-0.6697,-0.6622,-0.6576,-0.6531,-0.6447,-0.6413,-0.6346,-0.6288,-0.6239,-0.6173,-0.6117,-0.6073,-0.6043,-0.602,-0.595,-0.595,-0.5947,-0.5874,-0.5873,-0.5899,-0.596,-0.5993,-0.6015,-0.5931,-0.5932,-0.5932,0,-0.6796,-0.6735,-0.6685,-0.6587,-0.6566,-0.6537,-0.6462,-0.6418,-0.6338,-0.6297,-0.6244,-0.6181,-0.6133,-0.6097,-0.6028,-0.6028,-0.5993,-0.5953,-0.5952,-0.5942,-0.5906,-0.5952,-0.602,-0.6023,-0.5933,-0.5933,-0.5933,0,-0.6881,-0.6785,-0.6743,-0.6708,-0.6592,-0.6574,-0.6524,-0.6444,-0.6404,-0.6338,-0.6311,-0.624,-0.6201,-0.6145,-0.6064,-0.6046,-0.6003,-0.5961,-0.5966,-0.5968,-0.5961,-0.5963,-0.6025,-0.5939,-0.5939,-0.5939,-0.5939,0,-0.6924,-0.6897,-0.6779,-0.6753,-0.6719,-0.6631,-0.6599,-0.6541,-0.6471,-0.643,-0.6352,-0.6315,-0.621,-0.6159,-0.6095,-0.6047,-0.603,-0.5993,-0.5977,-0.6001,-0.6005,-0.5977,-0.5973,-0.594,-0.594,-0.5939,-0.5939,0,-0.7013,-0.6933,-0.6882,-0.6777,-0.675,-0.6729,-0.6638,-0.6608,-0.6545,-0.6494,-0.6477,-0.6377,-0.6313,-0.6227,-0.6135,-0.6092,-0.6052,-0.6026,-0.608,-0.607,-0.608,-0.608,-0.6125,-0.6126,-0.6041,-0.6042,-0.6043,0,-0.7047,-0.7024,-0.6917,-0.6885,-0.6839,-0.6789,-0.6748,-0.6659,-0.6619,-0.6527,-0.6507,-0.6438,-0.6378,-0.628,-0.6197,-0.6127,-0.6098,-0.6118,-0.6087,-0.6111,-0.6097,-0.61,-0.6097,-0.6127,-0.6128,-0.6129,-0.613,0,-0.7114,-0.7076,-0.7021,-0.6953,-0.6907,-0.6848,-0.6785,-0.6763,-0.666,-0.6619,-0.6554,-0.6508,-0.6415,-0.6347,-0.6265,-0.621,-0.6152,-0.6141,-0.6138,-0.6162,-0.6195,-0.6177,-0.6101,-0.614,-0.6139,-0.6138,-0.6138,-0.6137,-0.7176,-0.7151,-0.7072,-0.7014,-0.6958,-0.69,-0.6867,-0.68,-0.6745,-0.6665,-0.6614,-0.6552,-0.647,-0.6354,-0.6302,-0.625,-0.6227,-0.6223,-0.6222,-0.6223,-0.623,-0.6203,-0.6234,-0.6234,-0.6233,-0.6233,-0.6233,0,-0.7239,-0.7184,-0.7131,-0.7047,-0.7,-0.6951,-0.6879,-0.6842,-0.6789,-0.6719,-0.6662,-0.6586,-0.6518,-0.643,-0.6356,-0.6331,-0.6302,-0.6314,-0.6315,-0.6303,-0.6255,-0.6265,-0.6339,-0.6339,-0.6339,-0.6339,-0.6339,-0.6339,-0.7267,-0.7223,-0.7175,-0.7101,-0.7044,-0.6984,-0.6947,-0.6893,-0.6836,-0.6756,-0.6701,-0.6644,-0.6566,-0.6485,-0.642,-0.6395,-0.6371,-0.6392,-0.6359,-0.6316,-0.6307,-0.6298,-0.6307,-0.6387,-0.6387,-0.6411,-0.6411,-0.6412]},{"header":{"parameterUnit":"m.s-1","parameterCategory":1,"la1":30.2991,"la2":30.254,"lo1":-89.0895,"lo2":-89.0444,"dy":0.0017,"dx":0.0017,"nx":28,"ny":28,"refTime":"2023-09-26T03:00:00:Z","depth":0,"parameterNumber":3,"parameterNumberName":"V-component_of_WINDS"},"data":[0,0,0,0,0,0,0,0,0,0,0,0,0,0,0,0,0,0,0,0,0,0,0,0,0,0,0,0,0,0,0,0,0,0,0,0,0,0,0,0,0,0,0,0,0,0,0,0,0,0,0,0,0,0,0,0,0,0,-4.6077,-4.6078,0,-4.6172,-4.6174,-4.6175,-4.6193,-4.6192,-4.6192,-4.6191,-4.6281,-4.6284,-4.6287,0,0,0,0,0,0,0,0,0,0,0,0,0,-4.5902,-4.5906,-4.6077,-4.6078,-4.6079,-4.6172,-4.6174,-4.6175,-4.6193,-4.6192,-4.6191,-4.6191,-4.628,-4.6283,-4.6287,0,0,0,0,0,0,0,0,0,0,0,0,0,-4.5986,-4.5907,-4.6077,-4.61,-4.6103,-4.6172,-4.6174,-4.6175,-4.6193,-4.6192,-4.6191,-4.619,-4.6278,-4.6283,-4.6287,-4.6338,0,0,-4.6301,-4.6303,0,0,0,0,0,0,0,0,-4.5981,-4.5992,-4.6095,-4.6098,-4.6102,-4.617,-4.6145,-4.6229,-4.6194,-4.6159,-4.6191,-4.619,-4.6244,-4.6251,-4.6271,-4.6342,-4.6346,-4.6302,-4.6305,-4.6307,-4.6308,0,0,0,0,0,0,0,-4.5975,-4.5988,-4.6115,-4.6097,-4.6101,-4.6103,-4.6113,-4.6161,-4.6206,-4.6162,-4.6163,-4.6175,-4.6246,-4.6267,-4.6274,-4.6347,-4.6302,-4.6306,-4.6309,-4.631,-4.6461,-4.6463,0,0,0,0,0,0,-4.5967,-4.5983,-4.6111,-4.6117,-4.6038,-4.6107,-4.6119,-4.6149,-4.6206,-4.6213,-4.6176,-4.6175,-4.626,-4.6268,-4.6277,-4.6338,-4.6307,-4.6311,-4.6313,-4.646,-4.6462,-4.6463,0,0,0,0,0,0,-4.5963,-4.5978,-4.6108,-4.6051,-4.6068,-4.6111,-4.6145,-4.6152,-4.6173,-4.6216,-4.6224,-4.619,-4.6259,-4.627,-4.6323,-4.6342,-4.6313,-4.6317,-4.6459,-4.6461,-4.6462,-4.6462,0,0,0,0,0,0,-4.5958,-4.5976,-4.5998,-4.6051,-4.6071,-4.6154,-4.6146,-4.6154,-4.6182,-4.6182,-4.6232,-4.6238,-4.6259,-4.6316,-4.6327,-4.6347,-4.6321,-4.6457,-4.6459,-4.6462,-4.646,-4.6463,-4.6466,0,0,0,0,0,-4.5951,-4.5992,-4.5999,-4.6014,-4.6099,-4.6155,-4.6166,-4.6191,-4.6183,-4.6204,-4.6232,-4.6237,-4.6338,-4.6321,-4.6334,-4.6356,-4.6456,-4.6459,-4.6461,-4.6459,-4.6463,-4.6466,0,0,0,0,0,0,-4.5937,-4.6,-4.6008,-4.6068,-4.6107,-4.6158,-4.6185,-4.6195,-4.6234,-4.6233,-4.626,-4.6271,-4.6321,-4.6344,-4.6323,-4.6407,-4.6396,-4.6402,-4.639,-4.6394,-4.6397,-4.6389,-4.6325,0,0,0,0,0,-4.5942,-4.5985,-4.6036,-4.6084,-4.6104,-4.6141,-4.6167,-4.6183,-4.6223,-4.6238,-4.627,-4.6306,-4.6346,-4.6371,-4.641,-4.6464,-4.6474,-4.6486,-4.6488,-4.6491,-4.6494,-4.6523,-4.6528,-4.6472,-4.6472,-4.6472,0,0,-4.595,-4.599,-4.6015,-4.6083,-4.6114,-4.6156,-4.6154,-4.6199,-4.6229,-4.6244,-4.6296,-4.632,-4.6362,-4.6415,-4.644,-4.6435,-4.6512,-4.6494,-4.6496,-4.6498,-4.6526,-4.6531,-4.6536,-4.6474,-4.6474,-4.6473,0,0,-4.5986,-4.6022,-4.6065,-4.6098,-4.6147,-4.6172,-4.6182,-4.6233,-4.625,-4.6303,-4.6315,-4.635,-4.6419,-4.6448,-4.6471,-4.6519,-4.6524,-4.6531,-4.6545,-4.6572,-4.6577,-4.6581,-4.6596,-4.6601,-4.6535,-4.6535,-4.6535,0,-4.599,-4.6056,-4.6086,-4.613,-4.6158,-4.6177,-4.6219,-4.6248,-4.6306,-4.6324,-4.6319,-4.6405,-4.6435,-4.6494,-4.6506,-4.6525,-4.6535,-4.6524,-4.6574,-4.6579,-4.6583,-4.6597,-4.6603,-4.6535,-4.6535,-4.6535,-4.6535,0,-4.6056,-4.6102,-4.613,-4.6189,-4.6221,-4.6263,-4.6297,-4.6325,-4.6339,-4.6363,-4.6415,-4.6452,-4.6498,-4.6513,-4.6526,-4.6574,-4.657,-4.6569,-4.6559,-4.6588,-4.6602,-4.6608,-4.6536,-4.6535,-4.6535,-4.6535,0,0,-4.6085,-4.6161,-4.6171,-4.6197,-4.6253,-4.6287,-4.6329,-4.6377,-4.64,-4.6439,-4.6473,-4.6531,-4.6532,-4.6558,-4.6575,-4.6599,-4.6632,-4.6595,-4.6597,-4.6599,-4.6684,-4.6683,-4.6689,-4.6637,-4.6638,-4.6639,-4.668,0,-4.6127,-4.6207,-4.6235,-4.6299,-4.634,-4.6359,-4.6395,-4.6432,-4.6456,-4.6491,-4.6517,-4.6557,-4.6555,-4.6571,-4.6596,-4.6622,-4.6649,-4.662,-4.6666,-4.6667,-4.6653,-4.6696,-4.6695,-4.6732,-4.6686,-4.6687,-4.6687,0,-4.6186,-4.6229,-4.6298,-4.6348,-4.6366,-4.6399,-4.6445,-4.648,-4.6521,-4.6536,-4.6567,-4.6581,-4.6624,-4.6613,-4.667,-4.665,-4.667,-4.6686,-4.6688,-4.6691,-4.6678,-4.6699,-4.6745,-4.675,-4.6697,-4.6696,-4.6695,0,-4.6198,-4.6273,-4.6324,-4.6346,-4.6406,-4.6428,-4.6454,-4.6494,-4.6521,-4.656,-4.6577,-4.6619,-4.6642,-4.6673,-4.6698,-4.6688,-4.6752,-4.6743,-4.6764,-4.6763,-4.6775,-4.6773,-4.6822,-4.6791,-4.6791,-4.6791,-4.6791,0,-4.624,-4.6281,-4.633,-4.6361,-4.6407,-4.6437,-4.6481,-4.6507,-4.6543,-4.6577,-4.6595,-4.6626,-4.6658,-4.6693,-4.6712,-4.6755,-4.6766,-4.6777,-4.6781,-4.6775,-4.6773,-4.6787,-4.6784,-4.6793,-4.6792,-4.6792,-4.6792,0,-4.626,-4.6295,-4.6351,-4.6404,-4.6419,-4.645,-4.6494,-4.6523,-4.6548,-4.6591,-4.6603,-4.6641,-4.6683,-4.6711,-4.6764,-4.6777,-4.6823,-4.6828,-4.681,-4.6812,-4.683,-4.6827,-4.6888,-4.6897,-4.6861,-4.6862,-4.6862,0,-4.6284,-4.6317,-4.6374,-4.64,-4.6426,-4.6467,-4.6495,-4.6526,-4.6554,-4.6603,-4.6626,-4.6669,-4.6706,-4.6771,-4.6801,-4.6841,-4.6846,-4.6865,-4.6852,-4.6844,-4.6844,-4.6841,-4.6843,-4.6866,-4.6866,-4.6866,-4.6866,0,-4.6322,-4.6338,-4.6379,-4.6426,-4.646,-4.6498,-4.6535,-4.6555,-4.6592,-4.6621,-4.6666,-4.6694,-4.6749,-4.6791,-4.6834,-4.6857,-4.6867,-4.6871,-4.6877,-4.687,-4.6857,-4.6862,-4.6814,-4.6869,-4.6868,-4.6868,-4.6868,-4.6868,-4.6344,-4.6373,-4.6418,-4.6463,-4.6495,-4.653,-4.656,-4.659,-4.6629,-4.6677,-4.6693,-4.6738,-4.6777,-4.6836,-4.686,-4.6894,-4.6892,-4.6902,-4.6904,-4.6905,-4.6904,-4.6854,-4.6902,-4.6902,-4.6902,-4.6902,-4.6902,0,-4.6381,-4.6412,-4.6453,-4.6506,-4.6541,-4.6551,-4.6593,-4.662,-4.6661,-4.6698,-4.6734,-4.6783,-4.6824,-4.6859,-4.69,-4.6921,-4.6926,-4.693,-4.6928,-4.6933,-4.6905,-4.6894,-4.6925,-4.6925,-4.6925,-4.6925,-4.6925,-4.6925,-4.6405,-4.6455,-4.6476,-4.6541,-4.657,-4.6617,-4.664,-4.6671,-4.67,-4.6756,-4.6791,-4.6815,-4.6849,-4.6894,-4.6931,-4.694,-4.6953,-4.6956,-4.6965,-4.6938,-4.6935,-4.6932,-4.6923,-4.6959,-4.6959,-4.6991,-4.6991,-4.6991]}]]